Regional Weather Roundup
Issued by NWS

Home | Current Version | Previous Version | Graphics & Text | Print | Product List | Glossary On
Versions: 1 2 3 4 5 6 7 8 9 10 11 12 13 14 15 16 17 18 19 20 21 22 23 24 25 26 27 28 29 30 31 32 33 34 35 36 37 38 39 40 41 42 43 44 45 46 47 48 49 50
000
ASUS43 KOAX 031310
RWRNE

WEATHER ROUNDUP FOR NEBRASKA
NATIONAL WEATHER SERVICE OMAHA NE
800 AM CDT WED JUN 03 2015

NOTES: SATELLITE DATA IS BEING USED TO AUGMENT CLOUD COVER ABOVE
       12000 FEET.
       "FAIR" INDICATES FEW OR NO CLOUDS BELOW 12,000 FEET WITH NO
       SIGNIFICANT WEATHER AND/OR OBSTRUCTIONS TO VISIBILITY.

  * THESE STATIONS DO NOT REPORT WEATHER SUCH AS RAIN...SNOW OR FOG.

NEZ001>004-019>022-054>056-031400-
NEBRASKA PANHANDLE

CITY           SKY/WX    TMP DP  RH WIND       PRES   REMARKS
SCOTTSBLUFF    MOSUNNY   57  52  83 W5        30.02R
ALLIANCE       MOSUNNY   57  52  83 N6        29.98R
CHADRON        SUNNY     55  51  86 SW8       30.00R
KIMBALL          N/A    N/A N/A N/A MISG        N/A
SIDNEY         SUNNY     58  53  84 N10       30.00R
$$

NEZ057>060-069>072-079>082-031400-
SOUTHWEST NEBRASKA

CITY           SKY/WX    TMP DP  RH WIND       PRES   REMARKS
NORTH PLATTE   MOSUNNY   63  56  78 VRB5      29.92R
IMPERIAL       MOSUNNY   63  54  72 NE7       29.91R
LEXINGTON      CLOUDY    62  58  87 SE13G20   29.84F
MCCOOK         PTSUNNY   66  55  67 E18       29.85F
OGALLALA       MOSUNNY   60  57  88 N3        29.94R
$$

NEZ005>010-023>029-035>040-094-031400-
NORTH CENTRAL NEBRASKA

CITY           SKY/WX    TMP DP  RH WIND       PRES   REMARKS
VALENTINE      PTSUNNY   60  52  74 NW9       29.93R
AINSWORTH      CLOUDY    61  58  90 NW9       29.92R
BROKEN BOW     CLOUDY    63  57  81 N21G33    29.82F
O`NEILL        CLOUDY    64  62  93 SW5       29.86F
ORD            CLOUDY    63  58  83 NW7       29.83R
THEDFORD       PTSUNNY   62  60  94 NW5       29.91F
$$

NEZ041-046>049-061>064-073>077-083>087-031400-
SOUTH CENTRAL NEBRASKA

CITY           SKY/WX    TMP DP  RH WIND       PRES   REMARKS
GRAND ISLAND   CLOUDY    61  59  93 S9        29.88F THUNDER
AURORA         CLOUDY    62  62 100 S9        29.90S
HASTINGS       CLOUDY    61  59  93 SE8       29.91R
HEBRON         RAIN      62  59  92 CALM      29.94F
HOLDREGE       CLOUDY    62  56  82 SE17      29.86F
KEARNEY *      CLOUDY    61  55  82 SE14      29.87F
YORK           CLOUDY    61  61 100 S10       29.88F
$$

NEZ011>018-030>034-042>045-031400-
NORTHEAST NEBRASKA

CITY           SKY/WX    TMP DP  RH WIND       PRES   REMARKS
NORFOLK        CLOUDY    64  59  83 SW7       29.83F
ALBION         CLOUDY    61  58  88 N13G20    29.79F
BLAIR          CLOUDY    64  60  87 SW16G22   29.91R
COLUMBUS *     CLOUDY    63  55  77 SW15      29.86F
FREMONT        RAIN      64  61  88 SW13      29.91F
TEKAMAH        CLOUDY    66  62  87 SW6       29.86R
WAYNE          CLOUDY    64  61  89 W6        29.87S
$$

NEZ050>053-065>068-078-088>093-031400-
SOUTHEAST NEBRASKA

CITY           SKY/WX    TMP DP  RH WIND       PRES   REMARKS
LINCOLN        RAIN      63  62  97 CALM      29.96R FOG
OMAHA EPPLEY   CLOUDY    66  62  87 W13G29    29.91R
BEATRICE       CLOUDY    62  61  97 CALM      29.95F
FALLS CITY     HVY RAIN  64  63  96 E13       29.90F FOG
NEBRASKA CITY  CLOUDY    64  63  99 SW6       29.93R
PLATTSMOUTH    CLOUDY    63  61  93 S16       29.88F
$$

NEZ044-045-051>053-067-031400-
OMAHA AREA

CITY           SKY/WX    TMP DP  RH WIND       PRES   REMARKS
OMAHA EPPLEY   CLOUDY    66  62  87 W13G29    29.91R
BLAIR          CLOUDY    64  60  87 SW16G22   29.91R
FREMONT        RAIN      64  61  88 SW13      29.91F
MILLARD        CLOUDY    65  63  91 NW13      29.94R
OFFUTT AFB     CLOUDY    64  63  94 W10       29.87S
PLATTSMOUTH    CLOUDY    63  61  93 S16       29.88F
WAHOO          LGT RAIN  64  61  92 SW14      29.94R
$$



USA.gov is the U.S. government's official web portal to all federal, state and local government web resources and services.